Weather History for K40B - March, 2013

Change the Weather History Date:

Thursday, March 21, 2013

  Actual Average Record
Temperature  
Mean Temperature 15 °F -  
Max Temperature 30 °F 33 °F 75 °F (2012)
Min Temperature 1 °F 10 °F -4 °F (2005)
Degree Days  
Heating Degree Days 50    
Moisture  
Dew Point 16 °F    
Average Humidity 77    
Maximum Humidity 92    
Minimum Humidity 60    
Precipitation  
Precipitation 0.00 in - - ()
Sea Level Pressure  
Sea Level Pressure 29.64 in    
Wind  
Wind Speed 6 mph (SSW)    
Max Wind Speed 14 mph    
Max Gust Speed 29 mph    
Averages and records for this station are not official NWS values.
T = Trace of Precipitation, MM = Missing Value Source: NWS Daily Summary

Daily Weather History Graph

Daily Weather History Graph

Search for Another Location

Airport or City:

Trip Planner

Search our weather history database for the weather conditions in past years. The results will help you decide how hot, cold, wet, or windy it might be!

Date:

Astronomy

Mar. 21, 2013 Rise Set
Actual Time 6:38 AM EDT 6:52 PM EDT
Civil Twilight 6:08 AM EDT 7:22 PM EDT
Nautical Twilight 5:33 AM EDT 7:58 PM EDT
Astronomical Twilight 4:56 AM EDT 8:34 PM EDT
Moon 1:01 PM EDT (3/21) 3:16 AM EDT (3/21)
Length of Visible Light 13h 14m
Length of Day
12h 13m
Waxing Gibbous, 68% of the Moon is Illuminated
Mar 21
Waxing Gibbous
Mar 27
Full
Apr 3
Last Quarter
Apr 10
New
Apr 18
First Quarter

Hourly Weather History & Observations

Time (EDT) Temp. Windchill Dew Point Humidity Pressure Visibility Wind Dir Wind Speed Gust Speed Precip Events Conditions
12:25 AM 20.3 °F 11.5 °F 18.3 °F 92% 29.54 in - SSW 6.9 mph - N/A   Unknown
1:25 AM 20.1 °F 12.3 °F 17.8 °F 91% 29.55 in - Variable 5.8 mph - N/A   Unknown
2:25 AM 19.9 °F 14.9 °F 17.2 °F 89% 29.55 in - Variable 3.5 mph - N/A   Unknown
3:25 AM 20.5 °F 10.0 °F 17.2 °F 87% 29.55 in - SSW 9.2 mph 16.1 mph N/A   Unknown
4:25 AM 21.0 °F 11.4 °F 17.8 °F 87% 29.56 in - SSW 8.1 mph 17.3 mph N/A   Unknown
5:25 AM 21.2 °F 13.6 °F 19.0 °F 91% 29.58 in - Variable 5.8 mph - 0.00 in   Unknown
6:25 AM - - - N/A% 29.59 in - Calm Calm - 0.00 in   Unknown
7:25 AM 23.0 °F 11.1 °F 19.4 °F 86% 29.61 in - SSW 12.7 mph 19.6 mph N/A   Unknown
8:25 AM 24.1 °F 12.5 °F 18.5 °F 79% 29.62 in - SSW 12.7 mph 21.9 mph N/A   Unknown
9:25 AM 24.8 °F 12.9 °F 19.0 °F 79% 29.64 in - SSW 13.8 mph 28.8 mph N/A   Unknown
10:25 AM 26.8 °F 18.5 °F 19.6 °F 74% 29.65 in - SSW 8.1 mph 28.8 mph N/A   Unknown
11:25 AM 26.4 °F 16.6 °F 17.2 °F 68% 29.67 in - SSW 10.4 mph 21.9 mph N/A   Unknown
12:25 PM 26.6 °F 21.2 °F 16.7 °F 66% 29.69 in - Variable 4.6 mph 15.0 mph N/A   Unknown
1:29 PM 28.0 °F 21.7 °F 15.6 °F 60% 29.68 in - Variable 5.8 mph 19.6 mph N/A   Unknown
2:27 PM 28.9 °F 20.4 °F 16.5 °F 60% 29.67 in - SSW 9.2 mph 17.3 mph N/A   Unknown
3:25 PM 27.9 °F 17.8 °F 17.6 °F 65% 29.68 in - SSW 11.5 mph 15.0 mph N/A   Unknown
4:25 PM 29.1 °F 25.4 °F 16.7 °F 60% 29.68 in - Variable 3.5 mph - N/A   Unknown
5:25 PM 27.0 °F 23.0 °F 15.3 °F 61% 29.68 in - Variable 3.5 mph - N/A   Unknown
6:25 PM 26.4 °F - 17.8 °F 70% 29.69 in - Calm Calm - N/A   Unknown
7:25 PM 22.1 °F - 19.6 °F 90% 29.70 in - Calm Calm - N/A   Unknown
8:25 PM - - - N/A% 29.69 in - Calm Calm - 0.00 in   Unknown
9:25 PM - - - N/A% 29.69 in - Calm Calm - N/A   Unknown
10:26 PM 1.2 °F - -2.0 °F 86% 29.68 in - Calm Calm - 0.00 in   Unknown
11:25 PM 2.5 °F - -0.8 °F 86% 29.69 in - Calm Calm - N/A   Unknown